Observations
| Time | Sensor | AQI | SAQ | Temp °C | Hum % | Pres Pa | CO μg/m³ | H₂S μg/m³ | NO μg/m³ | NO₂ μg/m³ | O₃ μg/m³ | SO₂ μg/m³ | CO₂e PPM | VOC PPM | PM1 μg/m³ | PM2.5 μg/m³ | PM4 μg/m³ | PM10 μg/m³ | TPS µm |
|---|---|---|---|---|---|---|---|---|---|---|---|---|---|---|---|---|---|---|---|
| Tuesday 11 August 2026 | |||||||||||||||||||
| 07:36 | Trim Market St | 2 | 17.9 | 70 | 55,981 | 0.78 | 0 | 2.76 | 16.33 | 15.65 | 0 | 2.14 | 4.03 | 6.28 | |||||
| 07:36 | Trim Patrick St | 1 | 14.1 | 79 | 38,460 | 0.48 | 3.37 | 2.96 | 34.74 | 14.75 | 0 | 4.57 | 8.1 | 8.91 | |||||
| 07:35 | Trim Market St | 1 | 17.8 | 70 | 55,723 | 0.66 | 0 | 2.84 | 15.7 | 11.52 | 0 | 0.71 | 2.55 | 4.4 | |||||
| 07:35 | Trim Patrick St | 1 | 13.9 | 79 | 38,460 | 0.49 | 3.06 | 3 | 42.02 | 7.53 | 0 | 3.71 | 6.69 | 7.36 | |||||
| 07:34 | Trim Market St | 2 | 17.7 | 71 | 55,370 | 0.68 | 0 | 2.57 | 22.99 | 14.84 | 0 | 0.71 | 2.05 | 3.8 | |||||
| 07:34 | Trim Patrick St | 1 | 13.8 | 79 | 38,460 | 0.48 | 2.9 | 2.98 | 31.28 | 10.74 | 0 | 3.71 | 8.09 | 8.9 | |||||
| 07:33 | Trim Market St | 2 | 17.6 | 71 | 54,949 | 0.68 | 0 | 2.23 | 20.47 | 7.5 | 0 | 2.14 | 3.48 | 6.29 | |||||
| 07:33 | Trim Patrick St | 1 | 13.7 | 79 | 38,460 | 0.48 | 4.3 | 3.01 | 39.39 | 11.01 | 0 | 4.57 | 7.4 | 8.14 | |||||
| 07:32 | Trim Market St | 2 | 17.5 | 72 | 54,462 | 0.66 | 0 | 2.11 | 17.76 | 21.34 | 0 | 0.71 | 2.01 | 3.83 | |||||
| 07:32 | Trim Patrick St | 1 | 13.6 | 80 | 38,460 | 0.46 | 3.86 | 3.05 | 36.57 | 11.77 | 0 | 3.71 | 7.36 | 8.09 | |||||
| 07:31 | Trim Market St | 2 | 17.3 | 72 | 53,950 | 0.66 | 0 | 2.12 | 19.48 | 22.08 | 0 | 2.14 | 3.45 | 5.68 | |||||
| 07:31 | Trim Patrick St | 1 | 13.5 | 79 | 38,460 | 0.46 | 2.49 | 3.09 | 40.06 | 6.49 | 0 | 4.57 | 7.36 | 8.1 | |||||
| 07:30 | Trim Market St | 2 | 17.2 | 72 | 53,425 | 0.65 | 0 | 2.14 | 27.42 | 23.39 | 0 | 0 | 2.95 | 5.08 | |||||
| 07:30 | Trim Patrick St | 1 | 13.4 | 80 | 38,460 | 0.47 | 3.78 | 3.09 | 36.34 | 9.59 | 0 | 4.57 | 8.73 | 9.6 | |||||
| 07:29 | Trim Market St | 2 | 17 | 72 | 52,960 | 0.65 | 0 | 2.19 | 25.63 | 24.53 | 0 | 0.71 | 1.98 | 5.08 | |||||
| 07:29 | Trim Patrick St | 1 | 13.3 | 80 | 38,460 | 0.48 | 2.98 | 3.1 | 40.73 | 6.32 | 0 | 3.71 | 8.03 | 8.83 | |||||
| 07:28 | Trim Market St | 2 | 16.9 | 73 | 52,381 | 0.66 | 0 | 2.15 | 25.36 | 23.29 | 0 | 1.43 | 3.41 | 5.7 | |||||
| 07:28 | Trim Patrick St | 1 | 13.2 | 80 | 38,460 | 0.47 | 1.78 | 3.23 | 31.07 | 8.83 | 0 | 2.86 | 6.62 | 7.28 | |||||
| 07:27 | Trim Market St | 2 | 16.7 | 73 | 51,670 | 0.65 | 0 | 2.21 | 36.61 | 23.84 | 0 | 1.43 | 3.4 | 5.7 | |||||
| 07:27 | Trim Patrick St | 1 | 13.1 | 80 | 38,460 | 0.47 | 2.92 | 3.22 | 43.51 | 1.6 | 0 | 3.71 | 7.33 | 8.06 | |||||